ECHOSTAR 25

导读

EchoStar 25(NORAD编号68126)是美国Dish Network(EchoStar公司)的一颗直连电视直播通信卫星,于2026年3月9日由SpaceX猎鹰9号运载火箭从美国佛罗里达州卡纳维拉尔角太空军基地发射升空,成功送入地球同步转移轨道,最终定点于赤道西经110度的地球静止轨道。 该卫星基于劳拉空间(Lanteris)1300系列卫星平台建造,重量达6.8吨,将在12.2-12.7GHz和17.3-17.8GHz频段开展天地通信服务,为北美地区提供高清电视直播传输服务,这也是2026年SpaceX完成的首次高轨商业发射任务。

基本信息
目录编号:
68126
目录名称:
ECHOSTAR 25
国际标识:
2026-045A
轨道中心:
EARTH
卫星名称:
ECHOSTAR 25
卫星全名:
ECHOSTAR 25
卫星状态:
在轨 (已飞行179 天)
发射日期:
2026-03-10 UTC
国别 :
美国 (US)
星等 :
--
轨道信息
数据来源 国际轨道数据
星历时间: 2026-09-04T23:29:24+0800
21小时前
查看轨道信息
半长轴: 42164.868km
偏心率: 0.0001453
轨道倾角: 0.011°
近地点辐角 21.845°
升交点赤经 138.065°
平近点角 306.220°
近地点: 35780.604km
远地点: 35792.858km
周期: 1436.104分钟
每日圈数: 1.002713
详细信息
使用方式:
暂无
2D轨道图
3D轨道图
轨道高度分析图
轨道倾角分析图
轨道综合分析图
查看轨道综合分析图